Theta_e
324 338 342 350 349 345 341 340 335 337 334 329 329 330 332 336 347 347 342 345 340 344 345 346 344 342 339 336 335 336 338 338 336 334 333 333 334 335 338 340 341 343 343 344 344 345 344 341 337
335 344 348 349 350 352 339 336 339 337 331 327 330 331 334 339 339 342 345 344 338 341 344 345 343 342 340 338 336 335 336 337 335 333 332 332 332 332 333 333 335 336 338 340 342 343 343 341 336
335 341 345 351 356 354 341 338 335 333 330 333 333 333 333 339 338 343 344 343 338 341 343 343 344 343 340 338 338 337 335 335 335 333 332 336 337 338 337 334 333 332 330 330 328 332 329 332 332
333 339 340 350 351 347 343 336 334 334 333 333 335 339 334 335 338 340 344 343 343 342 342 343 344 343 342 341 341 340 340 338 340 338 335 338 339 339 340 341 340 339 339 338 335 330 321 317 317
333 340 350 349 349 344 337 334 332 333 332 333 335 339 336 333 337 342 344 345 342 343 341 342 343 343 342 341 341 341 341 340 340 341 341 341 341 342 341 340 340 340 338 337 337 335 332 330 330
332 339 347 350 348 345 335 333 332 331 331 335 337 336 334 334 339 343 344 344 341 339 339 341 343 344 343 342 342 343 343 342 342 341 341 341 341 339 339 339 338 335 333 332 332 332 331 331 330
335 341 347 345 345 342 337 331 331 329 329 332 333 338 333 331 335 343 344 341 339 336 336 336 341 345 344 343 344 344 344 342 344 341 340 339 337 335 332 330 326 322 322 321 324 322 322 329 329
335 341 347 346 346 341 337 331 330 329 329 327 333 338 335 331 333 341 342 340 337 340 332 338 340 342 342 342 340 339 338 338 339 333 326 323 317 316 318 317 320 319 318 318 315 314 312 313 312
333 340 345 345 346 342 332 327 323 324 327 328 332 333 333 334 333 340 340 343 345 341 336 340 340 341 341 339 339 335 325 330 337 326 319 317 312 311 311 314 315 315 315 314 311 307 308 308 308
333 337 340 338 337 337 332 326 323 324 327 330 337 333 334 334 334 335 339 342 343 340 341 342 341 341 341 338 334 323 322 321 325 324 313 312 311 309 308 308 307 306 306 306 306 306 307 307 307
334 336 338 336 335 335 331 325 323 322 325 327 337 335 334 334 334 334 336 341 342 341 343 343 342 340 339 336 324 319 318 317 315 317 310 309 309 307 307 306 306 305 305 305 305 305 305 305 306
337 336 338 337 332 331 331 327 322 322 322 323 334 335 335 335 334 335 334 340 342 342 343 344 340 338 336 326 321 318 312 311 311 309 308 308 308 307 306 306 305 305 305 305 306 305 305 305 305
333 337 339 334 330 327 327 326 324 325 322 321 333 336 337 336 335 337 335 339 341 342 343 342 340 335 328 322 321 316 313 311 309 308 308 308 307 306 306 306 306 306 306 305 305 305 305 305 304
333 336 337 329 330 332 326 329 329 324 321 324 333 335 334 335 336 335 336 339 340 341 342 341 339 329 325 322 315 310 310 309 308 308 307 307 307 307 306 306 306 306 306 305 305 305 305 304 304
328 334 328 329 328 329 332 327 328 321 320 325 327 329 330 330 334 333 338 338 341 341 342 340 331 324 316 312 310 310 309 308 307 307 307 307 307 307 306 306 306 306 306 305 305 304 304 304 303
329 328 331 330 326 325 332 332 329 328 322 321 323 323 325 326 328 331 337 337 339 340 339 330 325 315 315 312 310 309 308 307 307 307 307 307 307 307 307 306 306 305 305 305 304 304 304 304 303
331 332 332 327 327 330 331 332 327 330 327 322 318 318 321 323 327 332 335 332 331 333 327 323 318 315 312 310 309 308 308 308 307 307 307 307 307 307 307 306 306 306 305 304 304 304 303 303 303
332 332 332 328 329 330 330 329 332 333 334 332 326 318 318 323 328 330 333 332 330 323 320 317 313 311 310 309 308 308 308 308 308 308 308 307 306 306 306 306 306 305 305 304 304 303 303 303 302
329 331 332 333 334 333 329 334 333 332 330 329 325 315 316 320 322 325 326 328 323 314 312 311 310 310 309 308 308 308 308 308 308 308 308 307 307 306 306 305 305 305 305 304 303 303 302 302 302
332 331 333 325 336 333 336 337 336 331 327 325 319 316 315 315 318 315 316 315 315 313 311 311 311 310 309 308 308 308 308 308 308 308 308 307 307 306 306 306 305 304 304 304 303 302 302 302 302
334 334 331 329 329 325 326 327 325 325 320 317 316 314 314 315 317 311 311 310 313 313 312 311 310 309 308 308 307 308 308 308 308 307 308 307 307 306 306 306 305 305 304 304 303 302 302 302 301
337 331 333 332 330 335 327 331 316 318 316 315 314 312 313 314 314 311 309 308 311 312 311 311 310 309 308 308 308 308 309 309 309 309 308 308 307 307 307 307 306 304 304 304 303 302 302 301 300
333 328 331 332 327 321 321 319 315 314 316 315 314 313 312 313 312 311 308 309 310 311 311 311 310 309 308 308 309 309 309 309 309 309 310 310 309 308 307 306 305 303 303 303 302 301 301 300 299
325 323 324 322 319 324 320 320 316 315 313 314 313 313 311 310 311 309 309 309 309 310 310 310 309 308 308 308 309 309 309 309 309 309 309 309 308 307 306 304 303 303 302 302 301 300 299 299 298
324 326 325 323 319 321 315 317 317 313 312 312 312 311 308 306 306 306 306 308 309 309 308 309 309 309 309 308 308 309 309 308 308 308 308 306 305 304 303 303 302 302 301 300 300 299 298 297 297
325 328 321 322 320 319 315 317 314 312 311 310 310 309 307 306 305 305 305 307 308 309 310 310 310 309 309 308 308 308 308 308 308 306 305 304 303 303 302 302 301 300 300 299 298 297 297 297 296
319 322 316 315 314 315 315 312 311 312 311 310 309 308 307 305 304 303 304 305 306 307 308 309 309 307 307 306 305 305 304 304 303 303 302 302 301 301 301 300 299 298 297 296 296 295 295 295 295
318 318 317 313 315 316 314 313 313 312 311 310 309 307 306 304 303 302 303 304 305 305 305 305 305 305 305 304 304 303 303 302 302 301 301 301 300 300 299 298 297 296 296 295 295 294 294 294 294
317 320 316 315 313 315 314 314 308 311 311 309 307 306 305 304 303 302 302 304 304 304 305 305 304 304 304 304 303 303 302 301 301 301 300 300 299 299 298 296 295 295 294 294 294 294 294 294 294
315 315 312 315 315 310 309 311 307 308 310 309 306 306 305 304 303 302 302 303 304 304 304 303 303 303 303 302 302 302 301 301 300 300 300 299 298 296 295 295 294 294 294 294 294 294 294 294 295
Wind_Speed
11 3 3 2 4 4 2 4 4 3 3 3 2 9 8 4 1 3 6 18 22 23 19 16 15 14 14 14 13 13 13 13 13 14 14 14 14 13 13 13 13 13 14 15 14 14 13 12 13
7 3 3 2 4 0 4 1 5 5 7 8 8 4 6 3 3 10 15 24 22 22 20 17 16 14 14 14 13 13 13 13 13 14 14 14 15 14 14 14 13 13 13 11 12 12 12 11 10
5 1 3 3 1 4 3 3 6 4 10 4 4 4 5 4 6 15 20 27 23 22 20 17 16 14 13 13 13 13 13 13 13 14 14 14 14 14 14 14 14 14 13 13 11 10 9 9 10
2 4 3 2 4 3 4 6 5 7 3 6 6 6 4 5 17 16 32 28 25 23 20 18 16 14 13 13 12 12 12 12 13 13 13 13 13 13 13 14 14 15 14 14 13 13 13 13 12
2 2 3 1 4 3 3 5 8 6 5 4 4 3 2 5 17 32 33 29 27 24 20 18 17 15 13 12 12 12 13 13 12 12 12 12 12 13 14 13 14 14 13 13 13 13 13 14 15
2 3 3 2 4 5 3 6 7 6 4 5 6 5 4 18 32 33 32 29 26 25 22 20 18 16 14 14 13 12 11 11 12 11 10 12 13 13 13 13 13 13 13 14 13 13 11 13 15
5 3 5 5 4 5 5 5 6 7 7 4 11 5 2 6 30 35 33 28 25 24 24 21 20 17 15 14 13 12 11 12 13 13 12 11 11 11 12 13 12 14 14 15 13 14 15 12 13
4 4 5 5 5 7 5 7 5 8 5 4 6 6 6 13 31 32 31 28 28 26 24 23 22 19 17 15 13 12 11 12 13 12 13 13 13 13 14 15 11 12 15 15 14 13 13 13 13
4 2 3 5 6 7 4 6 1 2 6 2 3 7 10 34 29 32 26 24 27 26 26 24 23 20 18 16 15 14 14 13 12 11 11 11 13 14 13 12 13 15 14 14 14 13 13 13 13
4 4 8 5 3 6 7 6 8 6 5 3 2 3 30 34 28 26 22 22 23 29 27 26 24 22 20 16 16 15 13 11 10 11 11 12 12 11 12 11 13 14 13 13 13 13 12 12 12
6 6 6 4 6 4 5 6 3 10 2 7 10 12 20 19 20 23 23 29 35 36 31 27 24 22 22 20 19 17 14 13 14 14 12 13 13 12 12 13 13 13 12 14 15 16 16 15 14
4 4 2 4 5 4 2 2 5 4 7 9 12 21 15 14 14 18 22 24 26 31 30 28 24 23 20 21 19 18 16 15 14 13 13 11 12 12 13 13 13 14 15 16 18 18 18 17 17
6 5 5 4 3 3 1 1 4 4 1 8 9 13 16 14 15 21 22 27 28 29 31 30 25 22 22 21 18 19 17 12 12 12 11 9 12 12 11 13 13 14 14 15 16 17 17 18 18
7 7 5 3 3 4 4 2 0 2 1 9 13 11 9 10 13 11 18 26 27 30 34 30 27 22 21 20 21 20 15 12 13 12 12 12 12 11 10 11 11 11 11 12 13 14 16 17 19
5 5 3 4 3 2 3 6 4 4 3 8 7 6 7 8 13 12 24 27 33 30 33 32 29 24 24 22 20 17 12 13 14 13 12 11 9 9 8 8 8 8 8 9 10 12 14 16 19
6 5 5 3 5 2 5 3 4 5 7 4 5 7 8 7 10 12 26 33 33 34 32 32 29 27 22 19 16 13 12 14 14 13 12 10 9 7 6 5 5 5 5 6 9 12 14 16 19
1 5 4 3 1 4 3 4 5 2 3 6 7 6 8 7 7 23 32 36 36 36 35 33 30 26 22 17 13 14 14 14 13 12 11 10 8 6 4 3 1 1 3 5 9 11 15 17 21
4 6 3 6 7 2 4 6 4 5 5 4 5 7 8 7 10 24 33 38 37 36 35 32 30 26 20 16 16 15 14 13 13 10 9 9 8 7 6 5 4 3 5 6 9 12 14 16 18
5 6 6 2 5 4 8 4 7 7 5 7 6 7 6 9 3 16 27 35 35 33 33 33 29 23 22 22 20 17 16 16 14 14 12 11 10 10 9 8 7 7 7 7 9 10 13 17 16
4 5 4 1 4 3 6 8 10 5 5 6 8 6 4 4 7 12 24 33 36 35 31 28 25 25 22 20 20 18 16 15 15 14 15 14 13 13 12 11 10 10 10 9 9 10 11 12 11
6 5 5 5 3 1 6 6 6 4 3 4 4 5 6 2 9 8 16 25 32 30 27 26 26 25 23 19 19 14 12 13 15 16 17 17 17 16 15 15 13 13 13 12 12 11 11 10 11
11 8 8 7 7 5 3 4 4 3 5 4 3 3 5 2 6 7 11 20 31 30 26 26 25 25 23 21 20 18 15 11 12 13 16 18 19 19 17 16 16 15 13 13 13 12 10 11 14
8 7 12 8 5 5 1 3 6 3 3 4 2 2 0 2 6 8 11 23 30 28 27 24 23 23 23 23 21 20 18 16 12 11 11 12 15 18 17 17 16 14 12 12 11 11 13 15 16
5 7 7 4 2 0 6 6 5 5 7 4 2 0 3 5 3 9 14 23 22 20 23 20 19 19 20 21 19 18 18 16 13 13 10 8 11 12 11 7 6 7 10 12 14 15 16 18 19
3 6 3 1 1 5 4 4 7 2 5 7 7 4 6 5 6 8 8 12 13 13 14 13 14 12 8 9 11 12 13 14 14 12 8 5 6 6 6 8 10 12 14 16 17 20 23 23 23
6 6 5 6 5 4 6 6 4 2 4 7 6 6 6 7 7 8 10 16 15 13 12 10 9 7 5 5 4 4 6 4 4 3 4 4 5 7 8 10 13 16 18 19 20 22 23 24 25
5 3 4 5 2 3 2 3 4 4 5 5 7 7 7 7 7 8 13 19 18 17 14 12 11 9 8 7 6 6 5 3 1 2 3 4 4 6 10 13 14 16 18 19 20 22 24 24 25
2 3 2 3 3 3 3 3 4 8 8 6 7 8 6 6 7 7 10 15 14 13 13 11 9 6 4 1 1 2 2 2 2 2 4 5 6 8 11 15 18 19 20 21 22 24 25 25 26
1 0 4 4 4 4 2 6 5 12 12 11 9 8 8 7 7 7 9 11 11 11 8 6 4 2 1 3 4 3 3 4 3 4 5 7 10 14 17 18 19 21 23 22 23 25 27 27 26
3 4 4 4 3 1 4 5 4 8 12 11 8 8 7 7 7 6 8 8 8 8 6 4 2 1 4 5 4 1 2 4 7 9 9 11 15 17 17 20 21 22 22 23 24 27 27 28 22
Wind_Direction
332 305 297 58 56 62 220 229 160 161 62 329 19 100 114 61 102 178 163 153 147 149 153 145 137 128 119 115 114 113 108 102 97 93 89 87 84 83 82 80 79 77 71 71 70 70 67 64 70
341 72 96 83 86 34 269 248 159 167 128 129 90 92 55 64 68 113 122 156 149 151 149 146 138 130 123 120 114 111 110 106 100 95 93 90 86 83 82 79 77 76 75 71 73 69 60 63 67
323 312 80 92 121 191 199 214 167 153 157 141 103 80 119 130 103 155 152 154 148 150 149 141 140 134 127 123 118 114 111 107 102 98 98 95 90 85 84 82 79 74 71 69 69 64 60 60 63
336 31 28 93 237 261 220 185 182 138 119 73 119 75 69 223 156 147 154 152 149 150 147 143 138 136 129 126 122 119 116 110 104 102 103 98 93 92 90 87 80 76 70 67 64 61 61 62 60
96 60 77 354 281 256 188 195 161 146 145 126 123 132 75 157 144 148 156 157 152 151 149 144 138 134 131 130 127 121 114 110 109 109 105 101 98 90 88 88 84 75 71 66 63 62 59 59 54
47 106 84 211 286 295 201 189 163 144 150 149 86 103 177 152 142 152 159 159 156 153 151 145 141 135 129 128 124 120 115 112 111 107 105 99 94 92 86 81 78 73 68 65 65 60 52 61 53
134 108 180 175 231 301 196 138 173 162 151 183 143 101 155 171 154 161 161 157 156 154 150 148 143 142 134 131 123 120 114 110 111 108 103 104 91 87 83 80 78 72 70 64 61 60 58 64 50
132 117 176 217 183 237 230 147 183 149 183 101 138 155 187 197 159 163 160 160 158 157 154 152 151 152 150 140 129 122 121 120 120 110 97 92 90 89 89 77 70 73 66 66 58 58 62 63 56
128 98 194 202 164 242 202 140 138 97 122 69 175 154 171 170 160 157 156 150 158 162 161 158 158 159 154 147 134 125 120 122 125 113 99 105 97 92 91 97 78 75 68 65 62 62 62 61 58
135 158 211 215 213 268 181 140 146 126 132 31 64 33 148 166 160 153 158 162 163 166 168 167 164 162 155 147 138 133 135 135 148 135 123 117 111 96 92 96 87 83 79 74 65 59 56 52 45
178 196 201 265 299 217 167 138 133 125 219 194 173 151 155 165 175 159 169 174 175 172 169 174 167 164 159 152 147 141 142 140 133 145 136 125 119 107 100 96 89 85 77 69 62 60 52 46 38
161 194 128 299 337 349 40 122 85 173 213 170 172 162 158 173 181 181 169 174 167 171 172 173 171 163 162 157 154 149 146 142 141 135 134 133 123 113 102 93 86 80 73 68 62 57 50 46 37
186 182 186 270 38 42 184 122 179 145 246 132 134 160 170 175 184 193 180 172 167 164 177 172 174 165 162 161 161 158 160 167 156 150 143 148 133 118 107 96 88 84 73 63 56 49 41 32 25
197 172 182 191 84 37 51 12 41 120 159 122 154 171 172 174 183 166 161 161 165 169 171 174 172 170 171 168 160 157 158 161 156 146 143 142 137 123 113 103 91 82 68 58 46 38 30 23 14
157 112 143 175 145 97 307 21 359 6 84 131 150 158 176 195 199 167 158 156 170 172 171 170 168 167 162 157 159 159 159 157 151 148 145 146 142 134 123 109 95 79 64 50 35 28 19 13 7
139 101 145 217 146 14 118 221 280 359 118 133 190 189 189 204 200 183 156 153 160 161 161 163 167 164 165 163 165 165 162 162 158 160 163 160 156 151 142 125 100 72 43 29 18 11 8 4 358
209 163 149 136 240 149 119 208 245 308 97 128 157 209 217 197 162 164 157 154 154 159 163 166 167 167 163 159 165 165 166 169 170 169 171 173 174 175 179 172 150 25 356 359 359 0 356 352 349
161 118 137 154 189 105 197 217 228 259 253 192 180 199 214 212 177 167 163 164 162 161 163 164 164 161 159 160 163 170 175 182 189 195 194 196 200 209 220 223 235 273 310 333 343 346 344 342 341
147 153 173 225 179 122 196 208 235 239 224 246 242 196 210 207 136 170 163 166 162 158 158 160 159 162 165 164 170 180 188 191 199 205 211 218 224 226 231 243 253 272 295 312 326 329 331 332 337
170 166 176 74 165 126 180 240 245 239 218 219 205 175 191 126 126 153 165 164 164 162 157 162 169 173 177 180 181 186 195 204 213 214 216 228 240 243 253 263 262 265 281 287 306 316 318 319 332
226 174 177 170 134 328 115 298 242 230 154 126 75 117 96 145 167 163 164 166 167 166 166 167 176 179 178 182 184 198 211 225 227 226 225 232 240 244 253 257 258 266 267 278 292 297 295 297 308
219 189 189 141 129 198 187 248 284 209 130 95 82 64 82 73 164 153 165 162 169 172 173 178 182 184 189 191 197 207 209 206 224 232 238 243 245 249 255 257 262 263 261 273 283 287 289 295 298
237 183 167 184 138 125 166 101 261 107 146 183 185 93 95 236 160 166 166 167 173 174 181 185 188 195 196 199 206 210 213 224 227 233 247 253 249 247 250 248 256 253 256 269 276 286 295 297 293
179 91 51 53 84 90 209 155 273 192 193 180 215 42 352 331 249 153 163 162 163 173 186 192 195 195 202 209 215 221 226 236 237 238 242 243 245 249 252 247 245 260 277 285 293 298 299 298 291
105 85 62 286 242 215 155 152 236 204 169 164 168 90 27 32 97 116 123 126 140 149 153 151 157 150 170 201 221 234 244 250 254 254 249 235 223 223 252 274 285 292 298 302 302 301 299 298 293
192 164 160 173 186 221 110 215 256 354 128 124 112 108 70 57 68 82 92 110 118 124 130 136 137 128 147 161 165 208 232 237 225 239 250 255 269 282 297 302 303 304 301 299 299 297 296 293 289
186 165 172 102 73 93 197 331 354 75 97 119 123 106 93 79 81 92 100 111 110 106 104 110 113 103 92 96 105 101 98 109 156 238 260 292 312 314 304 304 305 305 304 303 302 299 297 295 292
145 183 78 10 152 223 282 238 227 192 180 169 157 143 127 114 103 104 109 118 117 111 106 103 102 104 102 83 51 98 91 67 52 328 309 313 316 313 310 309 308 308 307 307 305 301 299 295 291
66 98 45 101 141 167 188 261 215 191 179 178 182 166 155 146 138 143 139 128 123 120 113 104 95 69 308 280 266 260 295 322 339 337 323 315 313 314 316 316 313 312 310 308 306 303 300 295 293
209 191 131 126 233 114 147 272 353 181 174 167 172 169 158 153 166 151 129 123 117 113 115 99 67 314 279 259 247 252 321 317 308 304 305 310 314 317 317 316 315 313 310 309 307 304 299 292 283